Location: Arbon
(43.0005°N, 0.7472°E)
Time: 16:17:37
(UTC+00:00)

Courier 1B Rocket - Pass Details

Date: 29 November 2020
Orbit: 920 x 1202 km, 28.2° (Epoch: 21 January)

Event Time Altitude Azimuth Distance (km) Brightness Sun altitude
Rises 07:34:30 0° 247° (WSW) 4,088 7.9 3.5°
Reaches altitude 10° 07:37:54 10° 235° (SW) 3,108 7.5 4.0°
Maximum altitude 07:43:59 26° 183° (S) 2,115 7.3 4.9°
Drops below altitude 10° 07:49:51 10° 131° (SE) 2,988 10.6 5.8°
Sets 07:53:03 0° 119° (ESE) 3,900 10.5 6.2°
